This demonstration page uses our WeatherBlox Daily Observations layout. Learn more.

Left ArrowRight Arrow

39.01783, -85.05884

Hourly Observations for December 25, 2016

Temp ( °F °C ) Dew Point ( °F °C ) Humidity (%) Winds ( mph kmh ) Pressure ( in mb ) Visibility ( mi km ) Precip ( " mm )
12:17 am 00:17 Cloudy 40 4.4 36 2.2 86 86 NNE 6 9 30.36 1028 9 14 N/A
12:52 am 00:52 Cloudy 40 4.4 37 2.8 89 89 NNE 7 11 30.33 1027 8 13 N/A
1:38 am 01:38 Cloudy with Mist and Fog 39 4 37 3 93 93 ENE 7 11 30.36 1028 5 8 N/A
1:52 am 01:52 Cloudy with Mist and Fog 40 4.4 38 3.3 93 93 ENE 8 13 30.33 1027 4 6 N/A
2:17 am 02:17 Cloudy with Mist and Fog 39 3.9 38 3.3 96 96 ENE 7 11 30.36 1028 2 3 N/A
2:39 am 02:39 Cloudy with Mist and Fog 39 3.9 38 3.3 96 96 ENE 12 19 30.36 1028 2 3 N/A
2:52 am 02:52 Cloudy with Mist and Fog 39 3.9 38 3.3 96 96 ENE 10 17 30.33 1027 2 3 N/A
3:52 am 03:52 Cloudy with Mist and Fog 39 3.9 38 3.3 96 96 ENE 9 15 30.34 1027 3 4 N/A
4:52 am 04:52 Cloudy with Mist and Fog 39 3.9 38 3.3 96 96 ENE 10 17 30.34 1027 3 4 N/A
5:17 am 05:17 Cloudy with Mist and Fog 39 3.9 38 3.3 96 96 ENE 9 15 30.36 1028 3 5 N/A
5:52 am 05:52 Cloudy with Mist and Fog 39 3.9 38 3.3 96 96 ENE 10 17 30.34 1028 3 5 N/A
6:36 am 06:36 Cloudy with Mist and Fog 39 4 37 3 93 93 NE 8 13 30.39 1029 3 4 N/A
6:52 am 06:52 Cloudy with Mist and Fog 39 3.9 38 3.3 96 96 ENE 9 15 30.35 1028 2 3 N/A
7:28 am 07:28 Cloudy with Mist and Fog 39 3.9 38 3.3 96 96 ENE 9 15 30.36 1028 1 2 N/A
7:52 am 07:52 Cloudy with Mist and Fog 39 3.9 38 3.3 96 96 ENE 9 15 30.36 1028 1 2 N/A
8:52 am 08:52 Cloudy with Mist and Fog 39 3.9 38 3.3 96 96 ENE 8 13 30.37 1028 1 2 N/A
9:00 am 09:00 Cloudy with Mist and Fog 39 4 37 3 93 93 ENE 9 15 30.39 1029 1 1 N/A
9:52 am 09:52 Cloudy with Mist and Fog 40 4.4 39 3.9 97 97 ENE 9 15 30.37 1029 1 1 N/A
10:52 am 10:52 Cloudy with Mist and Fog 41 5 40 4.4 96 96 E 7 11 30.38 1029 1 1 N/A
11:52 am 11:52 Cloudy with Mist and Fog 43 6.1 41 5 93 93 ENE 10 17 30.35 1028 1 1 N/A
12:07 pm 12:07 Cloudy with Mist and Fog 43 6.1 42 5.6 97 97 E 9 15 30.36 1028 2 2 N/A
12:52 pm 12:52 Cloudy with Mist and Fog 44 6.7 43 6.1 96 96 E 9 15 30.32 1027 2 2 N/A
1:32 pm 13:32 Cloudy with Mist and Fog 45 7 45 7 100 100 E 7 11 30.36 1028 1 1 N/A
1:52 pm 13:52 Cloudy with Mist and Fog 44 6.7 44 6.7 100 100 NE 3 6 30.32 1027 1 1 N/A
2:52 pm 14:52 Cloudy with Mist and Fog 45 7.2 44 6.7 97 97 E 8 13 30.30 1026 1 2 N/A
3:52 pm 15:52 Cloudy with Mist and Fog 45 7.2 45 7.2 100 100 E 8 13 30.30 1026 1 1 N/A
4:52 pm 16:52 Cloudy with Mist and Fog 46 7.8 46 7.8 100 100 E 7 11 30.30 1026 0 0 N/A
5:52 pm 17:52 Cloudy with Mist and Fog 46 7.8 46 7.8 100 100 ESE 8 13 30.30 1026 0 0 N/A
6:52 pm 18:52 Cloudy with Mist and Fog 47 8.3 46 7.8 97 97 E 9 15 30.30 1026 0 0 N/A
7:52 pm 19:52 Cloudy with Mist and Fog 47 8.3 47 8.3 100 100 E 9 15 30.30 1026 0 0 N/A
8:52 pm 20:52 Cloudy with Mist and Fog 48 8.9 48 8.9 100 100 SE 8 13 30.30 1026 0 0 N/A
9:52 pm 21:52 Mostly Cloudy with Fog 48 8.9 48 8.9 100 100 SE 9 15 30.28 1025 0 0 N/A
10:52 pm 22:52 Mostly Cloudy with Fog 49 9.4 49 9.4 100 100 SE 9 15 30.27 1025 0 0 N/A
11:03 pm 23:03 Mostly Cloudy with Fog 48 9 48 9 100 100 SE 8 13 30.30 1026 0 0 N/A
11:25 pm 23:25 Mostly Cloudy with Fog 50 10 50 10 100 100 SE 9 15 30.30 1026 0 0 N/A
11:30 pm 23:30 Mostly Cloudy with Fog 50 10 50 10 100 100 SE 9 15 30.30 1026 1 2 N/A
11:52 pm 23:52 Mostly Cloudy with Fog 50 10 50 10 100 100 SE 8 13 30.27 1025 1 2 N/A

Powered by AerisWeather